Home   Weather   Kalispell   Past weeks

Flag for USA Past Weather in Kalispell, Montana, USA — Yesterday and Last 2 Weeks

Now
45 °F

Partly sunny.


Feels Like: 41 °F
Forecast: 37 / 45 °F
Wind: 8 mph from Southeast

Location: Kalispell - Glacier Park International

Current Time: Apr 26, 2017 at 7:43:29 pm

Latest Report: Apr 26, 2017 at 6:55 pm


Visibility: 10 mi

Pressure: 29.67 "Hg (26.58 "Hg at 902m altitude)

Humidity: 86%

Dew Point: 41 °F

Location of KalispellLocation

Past Weather in Kalispell — Graph

°F

Kalispell Temperature Yesterday

Maximum temperature yesterday: 50 °F (at 2:55 pm)
Minimum temperature yesterday: 40 °F (at 12:55 am)
Average temperature yesterday: 43 °F

High & Low Weather Summary for the Past Weeks

 TemperatureHumidityPressure
High62 °F (Apr 22, 3:55 pm)100% (Apr 12, 10:55 pm)30.37 "Hg (Apr 12, 10:55 pm)
Low23 °F (Apr 16, 5:55 am)16% (Apr 16, 4:55 pm)29.62 "Hg (Apr 26, 5:05 pm)
Average43 °F77%29.95 "Hg
* Reported Apr 11 5:55 pm — Apr 26 5:55 pm, Kalispell, Weather by CustomWeather, © 2017

Note: Actual official high and low records may vary slightly from our data, if they occured in-between our weather recording intervals... More about our weather records

Advertising

Kalispell Weather History for the Previous 24 Hours

Scroll right to see more
 ConditionsComfort  
Time TempWeatherWind HumidityBarometerVisibility
5:55 pm
Wed, Apr 26
44 °FLight rain. Mostly cloudy.8 mph96%29.67 "Hg10 mi
5:32 pm45 °FBroken clouds.13 mph93%29.62 "Hg10 mi
5:05 pm45 °FLight rain. Mostly cloudy.14 mph90%29.62 "Hg10 mi
4:55 pm47 °FLight rain. More clouds than sun.15 mph83%29.65 "Hg10 mi
3:55 pm47 °FCloudy.8 mph83%29.66 "Hg10 mi
2:55 pm46 °FLight rain. Cloudy.9 mph89%29.68 "Hg10 mi
2:37 pm45 °FLight rain. Overcast.9 mph90%29.66 "Hg10 mi
1:55 pm44 °FLight rain. Overcast.8 mph89%29.70 "Hg8 mi
12:55 pm43 °FLight rain. Mostly cloudy.No wind89%29.71 "Hg8 mi
11:55 am42 °FLight rain. Mostly cloudy.5 mph85%29.72 "Hg10 mi
10:55 am41 °FLight rain. Mostly cloudy.No wind86%29.73 "Hg8 mi
9:55 am41 °FLight rain. Fog.No wind96%29.74 "Hg5 mi
9:35 am41 °FLight rain. Mostly cloudy.No wind96%29.71 "Hg9 mi
8:55 am40 °FLight rain. Mostly cloudy.No wind100%29.74 "Hg10 mi
7:55 am40 °FLight rain. Fog.No wind97%29.75 "Hg5 mi
7:23 am39 °FLight rain. Fog.No wind100%29.71 "Hg5 mi
6:55 am39 °FLight rain. Mostly cloudy.No wind100%29.75 "Hg8 mi
6:14 am39 °FLight rain. Mostly cloudy.No wind100%29.72 "Hg9 mi
5:55 am39 °FOvercast.3 mph100%29.76 "Hg10 mi
4:55 am38 °FPassing clouds.3 mph100%29.78 "Hg10 mi
4:07 am39 °FMostly cloudy.No wind100%29.75 "Hg10 mi
3:55 am40 °FMostly cloudy.3 mph97%29.78 "Hg10 mi
3:35 am40 °FMostly cloudy.5 mph100%29.75 "Hg10 mi
3:03 am40 °FLight rain. Passing clouds.6 mph100%29.76 "Hg7 mi
2:55 am41 °FLight rain. Fog.3 mph96%29.78 "Hg5 mi
1:55 am40 °FMostly cloudy.No wind100%29.80 "Hg10 mi
12:55 am40 °FLight rain. Mostly cloudy.3 mph100%29.81 "Hg10 mi
11:55 pm
Tue, Apr 25
41 °FLight rain. Mostly cloudy.No wind96%29.84 "Hg10 mi
10:55 pm41 °FMostly cloudy.3 mph93%29.84 "Hg10 mi
9:55 pm42 °FPassing clouds.6 mph96%29.84 "Hg10 mi
8:55 pm43 °FMostly cloudy.5 mph93%29.84 "Hg10 mi
7:55 pm43 °FMostly cloudy.3 mph93%29.84 "Hg10 mi
Weather by CustomWeather, © 2017

See weather overviewHow to use our weather pages